Regional Weather Roundup
Issued by NWS

Home | Current Version | Previous Version | Graphics & Text | Print | Product List | Glossary Off
Versions: 1 2 3 4 5 6 7 8 9 10 11 12 13 14 15 16 17 18 19 20 21 22 23 24 25 26 27 28 29 30 31 32 33 34 35 36 37 38 39 40 41 42 43 44 45 46 47 48 49 50

000
ASUS43 KMKX 181410
RWRWI

WISCONSIN REGIONAL WEATHER ROUNDUP
NATIONAL WEATHER SERVICE MILWAUKEE/SULLIVAN WI
800 AM CST THU JAN 18 2018

NOTE: "FAIR" INDICATES FEW OR NO CLOUDS BELOW 12,000 FEET WITH NO
SIGNIFICANT WEATHER AND/OR OBSTRUCTIONS TO VISIBILITY.

WIZ001-002-006>008-014>016-023>028-181500-
NORTHWEST WISCONSIN

CITY           SKY/WX    TMP DP  RH WIND       PRES   REMARKS
SUPERIOR ARPT  CLOUDY    29  21  71 SW10G17   29.74S WCI  20
ASHLAND        NOT AVBL
HAYWARD        MOCLDY    24  16  71 S9        29.76F WCI  14
SIREN          FAIR      26  19  72 SW10      29.78F WCI  17
CUMBERLAND     FAIR      23  18  80 SW12      29.81F WCI  12
RICE LAKE      FAIR      24  19  80 CALM      29.84F
CHETEK         FAIR      22  17  81 S7        29.83F WCI  14
LADYSMITH      FAIR      19  16  87 S7        29.83F WCI  10
EAU CLAIRE     FAIR      19  15  84 S9        29.88F WCI   8
MENOMONIE      FAIR      24  17  75 S8        29.88F WCI  14
NEW RICHMOND   FAIR      20  15  80 SW12      29.86S WCI   9
OSCEOLA        FAIR      26  19  74 SW12      29.87F WCI  15
$$

WIZ003>005-009-010-017-018-181500-
NORTH CENTRAL WISCONSIN

CITY           SKY/WX    TMP DP  RH WIND       PRES   REMARKS
MANITOWISH WTR MOCLDY    17  16  95 S3        29.74F
ARBOR VITAE    FAIR      19  17  89 S5        29.76F WCI  12
WOODRUFF       FAIR      19  17  89 S5        29.76F WCI  12
RHINELANDER    FAIR      19  16  88 SW8       29.78  WCI   9
EAGLE RIVER    FAIR      19  15  84 SW7       29.75F WCI  10
LAND O LAKES   FAIR      19  16  90 SW3       29.76F
PHILLIPS       FAIR      20  17  86 SW7       29.77F WCI  11
TOMAHAWK       FAIR      19  15  84 CALM      29.81F
MEDFORD        FAIR      20  16  83 SW8       29.83F WCI  10
MERRILL        FAIR      20  16  84 SW6       29.84F WCI  13
$$

WIZ029-030-035-036-043>047-181500-
CENTRAL WISCONSIN

CITY           SKY/WX    TMP DP  RH WIND       PRES   REMARKS
WAUSAU         FAIR      19  14  81 SW8       29.86R WCI   9
MOSINEE        MOCLDY    18  16  93 W8        29.90R WCI   7
MARSHFIELD     FAIR      19  13  77 W8        29.88R WCI   9
STEVENS POINT  FAIR      18  13  80 W7        29.92R WCI   9
WAUPACA        FAIR      22  15  72 W6        29.91S WCI  15
WAUTOMA        FAIR      19  13  77 SW8       29.93F WCI   9
WISC RAPIDS    FAIR      18  11  74 NW8       29.95R WCI   8
CAMP DOUGLAS   PTCLDY    21  14  73 S9        29.91F WCI  11
$$

WIZ011>013-019>022-031-037>040-048>050-181500-
NORTHEAST WISCONSIN

CITY           SKY/WX    TMP DP  RH WIND       PRES   REMARKS
ANTIGO         FAIR      19  15  86 W8        29.83S WCI   8
SHAWANO        FAIR      22  16  76 SW7       29.89R WCI  14
OCONTO         FAIR      21  15  76 SW7       29.89R WCI  12
STURGEON BAY   FAIR      22  15  75 SW13      29.90R WCI  10
GREEN BAY      FAIR      21  13  71 SW9       29.91S WCI  11
MANITOWOC      FAIR      23  15  71 SW8       29.92F WCI  14
APPLETON       PTCLDY    19  10  68 SW17      29.88F WCI   4
CLINTONVILLE   FAIR      21  14  73 SW3       29.91R
OSHKOSH        FAIR      20  12  71 SW10      29.92F WCI   9
$$

WIZ032>034-041-042-053>061-181500-
SOUTHWEST WISCONSIN

CITY           SKY/WX    TMP DP  RH WIND       PRES   REMARKS
LA CROSSE      FAIR      20  12  71 S12       29.96F WCI   8
SPARTA         FAIR      21  15  78 S6        29.94F WCI  13
VIROQUA        FAIR      18  14  85 SW12      29.94F WCI   5
BOSCOBEL       FAIR      19  11  70 W6        30.04F WCI  11
PRAIRIE DU CHI FAIR      20  11  69 SW7       30.04F WCI  11
PLATTEVILLE    FAIR      17  12  82 S8        30.03F WCI   6
$$

WIZ056-057-062-063-064-067-068-181500-
SOUTH CENTRAL WISCONSIN

CITY           SKY/WX    TMP DP  RH WIND       PRES   REMARKS
REEDSBURG      FAIR      19  12  74 SW9       29.97F WCI   8
BARABOO/DELLS  FAIR      19  12  73 SW18      29.95F WCI   4
LONE ROCK      FAIR      17  11  77 CALM      30.03F
MINERAL POINT  FAIR      21  16  79 SW13      29.99F WCI   9
MADISON        MOCLDY    18  11  74 S7        29.99F WCI   9
MIDDLETON      FAIR      20  13  73 SW14      29.99F WCI   7
WATERTOWN      FAIR      17  12  81 SW9       29.99F WCI   5
MONROE         FAIR      16  10  79 SW17      30.02F WCI   0
JANESVILLE     CLEAR     16  10  79 SW12      30.06F WCI   3
$$

WIZ051-052-058>065-066-070>072-181500-
SOUTHEAST WISCONSIN

CITY           SKY/WX    TMP DP  RH WIND       PRES   REMARKS
MILWAUKEE      FAIR      20  11  68 W15G26    30.02F WCI   6
WAUKESHA       CLEAR     16   9  73 SW10G16   30.01F WCI   3
MILWAUKEE/TIMM CLEAR     18   9  68 SW16      30.01F WCI   3
RACINE         FAIR      19  11  70 W15G28    30.04F WCI   5
BURLINGTON     FAIR      17  10  71 SW14G20   30.05F WCI   3
KENOSHA        FAIR      18   9  68 SW20      30.04F WCI   2
FOND DU LAC    FAIR      19  10  68 SW14G20   29.94F WCI   6
SHEBOYGAN      FAIR      21  14  74 SW15      29.94F WCI   8
WEST BEND      FAIR      19  12  73 W13G20    29.96F WCI   7
JUNEAU         FAIR      16  10  77 S10       29.98F WCI   4
$$

LSZ147-162-181500-
LAKE SUPERIOR

STATION/POSITION TIME  TEMP    WIND        PRES    WAVE
                       AIR SEA DIR/SP/G            HT/PER
                 (UTC) (F)     (DEG/KT/KT) (MB)    (FT/S)
DEVILS ISLAND    1400   31     240/ 20/ 24 1006.3R
SAXON HARBOR     1340   32     200/ 10/ 16 1006.4R
$$

LMZ867-665-643>646-181500-
LAKE MICHIGAN

STATION/POSITION TIME  TEMP    WIND        PRES    WAVE
                       AIR SEA DIR/SP/G            HT/PER
                 (UTC) (F)     (DEG/KT/KT) (MB)    (FT/S)
NORTHPORT PIER   1349   22     230/  8     1011.5S
KEWAUNEE LAKESHO 1348   23     250/  7/ 10 1012.1F
SHEBOYGAN LAKESH 1400   22     240/ 14/ 16 1014.9F
PORT WASHINGTON  1330   21     250/ 10/ 17 1016.3F
MILWAUKEE LAKESH 1350   21     250/ 15/ 20   N/A
KENOSHA   LAKESH 1400   18     250/ 19/ 26 1017.6
$$

TC  - TEMPERATURE IN CELSIUS
VSB - VISIBILITY IN STATUTE MILES
WCI - WIND CHILL INDEX
HX  - HEAT INDEX





USA.gov is the U.S. government's official web portal to all federal, state and local government web resources and services.